EW5657 Weather Reports


time (UTC)temp
F
wind
direction
speed
knots
gust
knots
rain 1hr
in
rain 24hr
in
rain mn
in
humidity
%
barometer
mb
20260505014650 61 313 1.7 6.1 0.00 0.01 0.00 65 1021.4
20260505014644 61 313 1.7 6.1 0.00 0.01 0.00 66 1021.3
20260505013642 61 291 0.9 5.2 0.00 0.01 0.00 67 1021.4
20260505013142 60 269 0.9 8.7 0.00 0.01 0.00 67 1021.5
20260505012642 60 269 1.7 8.7 0.00 0.01 0.00 66 1021.6
20260505012143 60 208 0.9 5.2 0.00 0.01 0.00 67 1021.6
20260505011642 60 194 0.9 6.1 0.00 0.01 0.00 68 1021.6
20260505011142 60 251 0.9 6.1 0.00 0.01 0.00 68 1021.5
20260505010642 60 253 1.7 6.1 0.00 0.01 0.00 69 1021.6
20260505010149 60 232 1.7 6.1 0.00 0.01 0.00 70 1021.4
20260505010143 60 258 1.7 6.1 0.00 0.01 0.00 69 1021.5
20260505005144 60 254 1.7 6.1 0.00 0.01 0.00 70 1021.4
20260505004642 60 262 0.9 6.1 0.00 0.01 0.00 71 1021.3
20260505004142 60 243 0.9 7.8 0.00 0.01 0.00 72 1021.3
20260505003643 59 207 0.9 7.8 0.00 0.01 0.00 72 1021.2
20260505003143 59 274 0.9 6.1 0.00 0.01 0.00 72 1021.2
20260505002642 59 277 0.9 7.8 0.00 0.01 0.00 72 1021.2
20260505002143 60 329 0.9 8.7 0.00 0.01 0.00 72 1021.1
20260505001649 60 265 0.9 7.0 0.00 0.01 0.00 72 1021.0
20260505001644 60 230 0.9 8.7 0.00 0.01 0.00 72 1021.0
20260505001309 60 185 0.9 7.0 0.00 0.01 0.00 72 1021.0
20260505000151 60 245 1.7 7.8 0.00 0.01 0.00 74 1020.8
20260505000143 60 251 1.7 11.3 0.00 0.01 0.00 72 1020.9
20260504235642 60 248 1.7 11.3 0.00 0.01 0.00 73 1020.9
20260504235310 59 313 1.7 6.1 0.00 0.01 0.00 75 1020.8
20260504234144 59 272 1.7 5.2 0.00 0.01 0.00 76 1020.8
20260504233639 59 230 1.7 5.2 0.00 0.01 0.00 76 1020.8
20260504233145 59 266 0.9 6.1 0.00 0.01 0.00 77 1020.7
20260504233139 59 2 0.9 4.3 0.00 0.01 0.00 77 1020.8
20260504232141 58 269 1.7 6.1 0.00 0.01 0.00 78 1020.7
20260504231639 58 232 0.9 5.2 0.00 0.01 0.00 78 1020.7
20260504231136 58 276 0.9 5.2 0.00 0.01 0.00 78 1020.5
20260504230637 58 278 0.9 3.5 0.00 0.01 0.00 79 1020.4
20260504230136 58 254 0.9 5.2 0.00 0.01 0.00 80 1020.4
20260504225640 58 268 1.7 7.8 0.00 0.01 0.00 81 1020.3
20260504225634 58 239 0.9 5.2 0.00 0.01 0.00 80 1020.3
20260504224636 58 265 1.7 10.4 0.00 0.01 0.00 81 1020.3
20260504224139 58 326 2.6 7.8 0.00 0.01 0.00 81 1020.2
20260504224133 58 293 2.6 10.4 0.00 0.01 0.00 81 1020.3
20260504223132 58 277 1.7 7.8 0.00 0.01 0.00 82 1020.1
20260504222629 57 302 2.6 13.0 0.00 0.01 0.00 82 1020.0
20260504222301 57 329 1.7 6.1 0.00 0.01 0.00 84 1019.7
20260504221758 57 288 1.7 4.3 0.00 0.01 0.00 84 1019.6
20260504220629 57 322 1.7 6.1 0.00 0.01 0.00 84 1019.5
20260504220130 56 315 1.7 6.1 0.00 0.01 0.00 84 1019.5
20260504215632 57 302 1.7 5.2 0.00 0.01 0.00 84 1019.4
20260504215130 57 294 1.7 6.1 0.00 0.01 0.00 85 1019.3
20260504214630 57 293 1.7 7.8 0.00 0.01 0.00 85 1019.2
20260504214130 57 287 2.6 7.8 0.00 0.01 0.00 85 1019.1
20260504213627 57 312 2.6 7.8 0.00 0.01 0.00 85 1019.0
20260504213129 57 296 1.7 7.8 0.00 0.01 0.00 86 1018.9
20260504212629 56 305 1.7 7.8 0.00 0.01 0.00 86 1018.9
20260504212128 56 321 1.7 7.0 0.00 0.01 0.00 85 1018.8
20260504211628 56 318 1.7 7.0 0.00 0.01 0.00 85 1018.6
20260504211127 57 308 2.6 8.7 0.00 0.01 0.00 85 1018.6
20260504210633 57 312 1.7 7.0 0.00 0.01 0.00 85 1018.4
20260504210627 57 312 2.6 8.7 0.00 0.01 0.00 85 1018.5
20260504205631 57 304 1.7 7.0 0.00 0.01 0.00 84 1018.4
20260504205627 57 304 1.7 7.0 0.00 0.01 0.00 84 1018.4
20260504204627 57 267 1.7 9.6 0.00 0.01 0.00 84 1018.3
20260504204129 57 310 2.6 9.6 0.00 0.01 0.00 84 1018.3
20260504203628 57 297 1.7 7.8 0.00 0.01 0.00 84 1018.3
20260504203127 57 344 1.7 7.0 0.00 0.01 0.00 84 1018.1
20260504202632 57 299 2.6 10.4 0.00 0.01 0.00 85 1017.8
20260504202627 57 297 1.7 8.7 0.00 0.01 0.00 85 1018.0
20260504202128 57 303 1.7 8.7 0.00 0.01 0.00 85 1017.9
20260504201127 57 299 3.5 10.4 0.00 0.01 0.00 85 1017.8
20260504200624 57 320 2.6 10.4 0.00 0.01 0.00 86 1017.8
20260504200125 57 319 2.6 9.6 0.00 0.01 0.00 86 1017.7
20260504195623 57 298 2.6 8.7 0.00 0.01 0.00 86 1017.6
20260504195131 57 303 2.6 7.0 0.00 0.01 0.00 85 1017.4
20260504195122 57 293 1.7 8.7 0.00 0.01 0.00 85 1017.5
20260504194622 57 298 2.6 7.0 0.00 0.01 0.00 85 1017.5
20260504194248 57 297 2.6 9.6 0.00 0.01 0.00 85 1017.4
20260504193122 57 311 3.5 10.4 0.00 0.01 0.00 84 1017.3
20260504192620 57 317 2.6 10.4 0.00 0.01 0.00 84 1017.3
20260504192119 57 314 3.5 11.3 0.00 0.01 0.00 83 1017.2
20260504191619 57 302 3.5 11.3 0.00 0.01 0.00 83 1017.2
20260504191117 57 285 2.6 10.4 0.00 0.01 0.00 82 1017.1
20260504190617 57 293 2.6 8.7 0.00 0.01 0.00 82 1017.0
20260504190117 57 331 1.7 8.7 0.00 0.01 0.00 82 1017.0
20260504185617 57 318 1.7 4.3 0.00 0.01 0.00 82 1016.9
20260504185117 57 322 1.7 9.6 0.00 0.01 0.00 82 1016.9
20260504184625 57 285 2.6 8.7 0.00 0.01 0.00 82 1016.7
20260504184619 57 324 2.6 9.6 0.00 0.01 0.00 82 1016.9
20260504184114 57 197 3.5 9.6 0.00 0.01 0.00 82 1016.6
20260504183115 57 307 2.6 9.6 0.00 0.01 0.00 82 1016.6
20260504182614 57 306 1.7 6.1 0.00 0.01 0.00 82 1016.5
20260504182113 57 305 2.6 7.0 0.00 0.01 0.00 82 1016.4
20260504181614 57 308 1.7 7.0 0.00 0.01 0.00 81 1016.4
20260504181114 57 307 2.6 9.6 0.00 0.01 0.00 81 1016.3
20260504180617 57 294 3.5 10.4 0.00 0.01 0.00 81 1016.2
20260504180611 57 310 3.5 9.6 0.00 0.01 0.00 81 1016.2
20260504175611 57 317 3.5 10.4 0.00 0.01 0.00 81 1016.1
20260504175113 57 303 2.6 7.8 0.00 0.01 0.00 81 1016.1
20260504174612 58 317 2.6 7.8 0.00 0.01 0.00 80 1016.0
20260504174111 58 315 3.5 11.3 0.00 0.01 0.00 80 1016.0
20260504173611 58 309 3.5 11.3 0.00 0.01 0.00 80 1016.0
20260504173114 58 302 2.6 8.7 0.00 0.01 0.00 80 1016.1
20260504172613 58 295 2.6 8.7 0.00 0.01 0.00 79 1016.0
20260504172111 58 301 2.6 10.4 0.00 0.01 0.00 79 1016.0
20260504171611 58 309 3.5 10.4 0.00 0.01 0.00 79 1016.0
20260504171112 58 291 4.3 11.3 0.00 0.01 0.00 79 1015.9
20260504170612 58 301 4.3 11.3 0.00 0.01 0.00 79 1015.9
20260504170111 58 310 4.3 10.4 0.00 0.01 0.00 78 1015.9
20260504151113 59 331 5.2 12.2 0.00 0.01 0.00 76 1015.1
20260504151107 59 318 4.3 12.2 0.00 0.01 0.00 76 1015.1
20260504150104 59 300 5.2 10.4 0.00 0.01 0.00 76 1015.1
20260504141110 60 299 6.1 15.6 0.00 0.01 0.00 75 1014.8
20260504141106 60 305 7.0 15.6 0.00 0.01 0.00 75 1014.9
20260504140735 60 289 6.1 12.2 0.00 0.01 0.00 76 1014.8
20260504130602 60 309 4.3 9.6 0.00 0.01 0.01 74 1014.5
20260504130109 60 300 3.5 8.7 0.00 0.01 0.01 74 1014.4
20260504130103 60 315 3.5 9.6 0.00 0.01 0.01 74 1014.5
20260504110553 61 347 5.2 9.6 0.00 0.01 0.01 74 1013.3
20260504100547 61 22 4.3 12.2 0.00 0.01 0.01 74 1012.4
20260504081547 61 342 3.5 13.9 0.00 0.01 0.01 75 1011.0
20260504081541 61 353 4.3 13.9 0.00 0.01 0.01 75 1011.1
20260504081213 61 6 4.3 10.4 0.00 0.01 0.01 75 1010.9
20260504080541 61 318 4.3 13.0 0.00 0.01 0.01 75 1011.0
20260504070209 62 320 6.1 14.8 0.01 0.01 0.01 73 1010.4
20260504050538 66 352 7.8 20.0 0.00 0.00 0.00 57 1009.8
20260504050532 66 18 7.8 18.2 0.00 0.00 0.00 57 1009.9
20260504045531 66 324 7.0 20.0 0.00 0.00 0.00 57 1009.9
20260504045031 66 353 7.0 19.1 0.00 0.00 0.00 58 1009.8
20260504044529 66 344 7.8 19.1 0.00 0.00 0.00 58 1009.8
20260504044030 66 350 7.8 17.4 0.00 0.00 0.00 58 1009.8
20260504043529 66 330 6.1 16.5 0.00 0.00 0.00 57 1009.8
20260504043036 66 270 5.2 14.8 0.00 0.00 0.00 57 1009.8
20260504043027 66 318 5.2 11.3 0.00 0.00 0.00 57 1009.8
20260504042528 66 280 6.1 14.8 0.00 0.00 0.00 57 1009.9
20260504041524 67 15 6.1 14.8 0.00 0.00 0.00 57 1009.7
20260504041024 66 335 6.1 14.8 0.00 0.00 0.00 57 1009.7
20260504040528 66 352 6.1 13.9 0.00 0.00 0.00 56 1009.7
20260504040026 66 10 6.1 20.0 0.00 0.00 0.00 56 1009.7
20260504035525 66 333 7.0 20.0 0.00 0.00 0.00 57 1009.6
20260504035025 66 326 6.1 15.6 0.00 0.00 0.00 56 1009.7
20260504034526 66 333 5.2 14.8 0.00 0.00 0.00 57 1009.5
20260504034027 66 316 6.1 14.8 0.00 0.00 0.00 56 1009.7
20260504033525 66 353 6.1 14.8 0.00 0.00 0.00 56 1009.8
20260504033030 66 39 7.0 15.6 0.00 0.00 0.00 56 1010.0
20260504033025 66 351 6.1 14.8 0.00 0.00 0.00 56 1009.8
20260504032024 66 354 7.0 18.2 0.00 0.00 0.00 55 1009.8
20260504031526 66 333 7.0 18.2 0.00 0.00 0.00 54 1010.0
20260504031023 67 352 6.1 13.9 0.00 0.00 0.00 54 1010.0
20260504030524 67 307 7.0 20.0 0.00 0.00 0.00 55 1010.0
20260504030023 66 326 7.0 20.0 0.00 0.00 0.00 56 1010.1
20260504025523 66 323 6.1 20.0 0.00 0.00 0.00 56 1010.2
20260504025025 65 296 5.2 13.0 0.00 0.00 0.00 58 1010.3
20260504024530 65 4 7.8 18.2 0.00 0.00 0.00 59 1010.6
20260504024523 65 16 6.1 18.2 0.00 0.00 0.00 58 1010.5
20260504023523 65 335 7.8 16.5 0.00 0.00 0.00 58 1010.7
20260504023029 65 326 6.1 15.6 0.00 0.00 0.00 59 1010.7
20260504023023 65 351 7.0 15.6 0.00 0.00 0.00 59 1010.8
20260504022022 65 349 6.1 15.6 0.00 0.00 0.00 59 1010.9
20260504021522 65 21 7.0 15.6 0.00 0.00 0.00 60 1010.9
20260504021021 64 293 7.0 18.2 0.00 0.00 0.00 60 1011.0
20260504020522 64 349 6.1 18.2 0.00 0.00 0.00 60 1011.1
20260504020027 64 352 6.1 22.6 0.00 0.00 0.00 60 1011.2
20260504020021 65 14 6.1 22.6 0.00 0.00 0.00 60 1011.1
20260504015650 64 296 7.0 22.6 0.00 0.01 0.00 60 1011.3
20260504015151 64 291 7.0 22.6 0.00 0.01 0.00 62 1011.4